Location: Recife
(8.0585°S, 34.8848°W)
Time: 11:44:00
(UTC-03:00)

Tiros 1 despin weight - All Passes

Search period start: 14 April 2026 00:00
Search period end: 24 April 2026 00:00
Orbit: 555 x 592 km, 48.2° (Epoch: 14 April)

Date Brightness Start Highest point End Pass type
(mag) Time Alt. Az. Time Alt. Az. Time Alt. Az.
14 Apr - 01:10:43 10° N 01:14:22 25° NE 01:17:59 10° ESE night (unlit)
14 Apr - 02:51:20 10° W 02:54:46 22° SW 02:58:13 10° S night (unlit)
14 Apr - 11:30:10 10° SSE 11:31:16 11° SE 11:32:22 10° ESE daylight
14 Apr - 13:07:43 10° SW 13:11:48 51° NW 13:15:52 10° NNE daylight
15 Apr - 01:12:02 10° NNW 01:16:17 49° NE 01:20:31 10° SE night (unlit)
15 Apr - 02:54:58 10° WSW 02:56:49 12° SW 02:58:40 10° SSW night (unlit)
15 Apr - 11:30:12 10° S 11:33:20 20° SE 11:36:27 10° E daylight
15 Apr - 13:10:14 10° WSW 13:13:43 26° NW 13:17:13 10° N daylight
16 Apr - 01:13:49 10° NW 01:18:12 82° SW 01:22:35 10° SE night (unlit)
16 Apr - 11:31:26 10° SSW 11:35:20 37° SE 11:39:13 10° ENE daylight
16 Apr - 13:13:34 10° W 13:15:38 13° NW 13:17:43 10° NNW daylight
16 Apr - 23:37:33 10° NNE 23:39:49 14° NE 23:42:04 10° E night (unlit)
17 Apr - 01:16:00 10° WNW 01:20:09 41° SW 01:24:18 10° SSE night (unlit)
17 Apr - 11:33:05 10° SW 11:37:17 77° SE 11:41:27 10° NE daylight
17 Apr - 23:38:04 10° N 23:41:43 26° NE 23:45:23 10° ESE night (unlit)
18 Apr - 01:18:41 10° W 01:22:08 22° SW 01:25:35 10° S night (unlit)
18 Apr - 09:57:30 10° SSE 09:58:40 11° SE 09:59:50 10° ESE daylight
18 Apr - 11:35:08 10° SW 11:39:12 51° NW 11:43:15 10° NNE daylight
18 Apr - 23:39:23 10° NNW 23:43:37 50° NE 23:47:53 10° SE night (unlit)
19 Apr - 01:22:19 10° WSW 01:24:10 12° SW 01:26:03 10° SSW night (unlit)
19 Apr - 09:57:34 10° S 10:00:43 20° SE 10:03:52 10° E daylight
19 Apr - 11:37:37 10° WSW 11:41:06 25° NW 11:44:34 10° N daylight
19 Apr - 23:41:08 10° NW 23:45:32 82° SW 23:49:56 10° SE night (unlit)
20 Apr - 09:58:47 10° SSW 10:02:42 38° SE 10:06:36 10° ENE daylight
20 Apr - 11:40:59 10° W 11:43:00 13° NW 11:45:02 10° NNW daylight
20 Apr - 22:04:50 10° NNE 22:07:08 14° NE 22:09:25 10° E night (unlit)
20 Apr - 23:43:19 10° WNW 23:47:28 41° SW 23:51:38 10° SSE night (unlit)
21 Apr - 10:00:26 10° SW 10:04:39 78° SE 10:08:49 10° NE daylight
21 Apr - 22:05:21 10° N 22:09:01 26° NE 22:12:43 10° ESE night (unlit)
21 Apr - 23:45:59 10° W 23:49:26 22° SW 23:52:54 10° S night (unlit)
22 Apr - 08:24:44 10° SSE 08:26:01 11° SE 08:27:16 10° ESE daylight
22 Apr - 10:02:28 10° SW 10:06:33 50° NW 10:10:35 10° NNE daylight
22 Apr - 22:06:39 10° NNW 22:10:54 50° NE 22:15:12 10° SE night (unlit)
22 Apr - 23:49:36 10° WSW 23:51:28 12° SW 23:53:20 10° SSW night (unlit)
23 Apr - 08:24:51 10° S 08:28:03 20° SE 08:31:12 10° E daylight
23 Apr - 10:04:57 10° WSW 10:08:25 25° NW 10:11:53 10° N daylight
23 Apr - 22:08:25 10° NW 22:12:48 81° SW 22:17:13 10° SE night (unlit)
